[[{"header":{"parameterUnit":"m.s-1","parameterCategory":1,"la1":30.2991,"la2":30.254,"lo1":-89.0895,"lo2":-89.0444,"dy":0.0017,"dx":0.0017,"nx":28,"ny":28,"refTime":"2024-02-19T03:00:00:Z","depth":0,"parameterNumber":2,"parameterNumberName":"U-component_of_WINDS"},"data":[0,0,0,0,0,0,0,0,0,0,0,0,0,0,0,0,0,0,0,0,0,0,0,0,0,0,0,0,0,0,0,0,0,0,0,0,0,0,0,0,0,0,0,0,0,0,0,0,0,0,0,0,0,0,0,0,0,0,-0.5735,-0.5734,0,-0.5713,-0.5713,-0.5713,-0.5648,-0.5647,-0.5645,-0.5644,-0.5624,-0.5625,-0.5626,0,0,0,0,0,0,0,0,0,0,0,0,0,-0.5722,-0.5722,-0.5735,-0.5734,-0.5734,-0.5713,-0.5713,-0.5713,-0.5648,-0.5647,-0.5645,-0.5643,-0.5624,-0.5625,-0.5626,0,0,0,0,0,0,0,0,0,0,0,0,0,-0.5717,-0.5722,-0.5735,-0.5699,-0.5696,-0.5713,-0.5713,-0.5713,-0.5649,-0.5646,-0.5644,-0.5642,-0.5624,-0.5625,-0.5626,-0.5677,0,0,-0.563,-0.563,0,0,0,0,0,0,0,0,-0.5717,-0.5717,-0.5705,-0.5702,-0.5698,-0.5681,-0.5701,-0.5701,-0.5649,-0.5667,-0.5644,-0.5641,-0.5645,-0.5644,-0.5645,-0.5676,-0.5675,-0.563,-0.5631,-0.5631,-0.5631,0,0,0,0,0,0,0,-0.5717,-0.5718,-0.5726,-0.5705,-0.5701,-0.5685,-0.5682,-0.5701,-0.5668,-0.5665,-0.566,-0.5658,-0.5643,-0.5644,-0.5644,-0.5674,-0.563,-0.5631,-0.5632,-0.5632,-0.5747,-0.5749,0,0,0,0,0,0,-0.5722,-0.5718,-0.5727,-0.5726,-0.5702,-0.5687,-0.5684,-0.5689,-0.5668,-0.5663,-0.566,-0.5656,-0.5643,-0.5643,-0.5643,-0.5702,-0.5631,-0.5632,-0.5633,-0.5744,-0.5747,-0.575,0,0,0,0,0,0,-0.5722,-0.5724,-0.5728,-0.5721,-0.572,-0.569,-0.5696,-0.5689,-0.5691,-0.5664,-0.5658,-0.5668,-0.5641,-0.5642,-0.5669,-0.5701,-0.5633,-0.5634,-0.5742,-0.5745,-0.5748,-0.582,0,0,0,0,0,0,-0.5722,-0.5724,-0.5743,-0.5722,-0.5721,-0.5753,-0.5698,-0.5691,-0.5693,-0.5686,-0.567,-0.5665,-0.564,-0.5667,-0.567,-0.5701,-0.5635,-0.5739,-0.5743,-0.5747,-0.5815,-0.5825,-0.5835,0,0,0,0,0,-0.5722,-0.5764,-0.5744,-0.5745,-0.5743,-0.5755,-0.5755,-0.5725,-0.5696,-0.5714,-0.5697,-0.5665,-0.5696,-0.5671,-0.5673,-0.5705,-0.5737,-0.5742,-0.5747,-0.581,-0.5823,-0.5834,0,0,0,0,0,0,-0.579,-0.576,-0.5738,-0.5774,-0.5768,-0.5744,-0.5767,-0.5739,-0.5742,-0.5736,-0.5698,-0.5695,-0.5728,-0.5719,-0.5691,-0.5753,-0.5711,-0.5717,-0.5758,-0.5771,-0.5781,-0.5783,-0.5636,0,0,0,0,0,-0.5809,-0.5821,-0.5794,-0.5829,-0.5827,-0.5798,-0.5802,-0.5779,-0.5771,-0.5768,-0.5753,-0.5748,-0.5756,-0.5763,-0.5769,-0.5813,-0.5809,-0.5836,-0.5846,-0.5854,-0.586,-0.5884,-0.5896,-0.5767,-0.5767,-0.5767,0,0,-0.5849,-0.5834,-0.5844,-0.5842,-0.5835,-0.5849,-0.5796,-0.5813,-0.5823,-0.5771,-0.5796,-0.5785,-0.5776,-0.5813,-0.5828,-0.5806,-0.5895,-0.5861,-0.5868,-0.5869,-0.5891,-0.5903,-0.5914,-0.577,-0.577,-0.5769,0,0,-0.5929,-0.5918,-0.5946,-0.5939,-0.5928,-0.5909,-0.5916,-0.5896,-0.5887,-0.5911,-0.5873,-0.5885,-0.59,-0.5896,-0.5896,-0.5974,-0.5946,-0.5977,-0.603,-0.6054,-0.6064,-0.6073,-0.6103,-0.6114,-0.5983,-0.5983,-0.5983,0,-0.598,-0.5999,-0.5964,-0.5984,-0.5985,-0.5938,-0.5966,-0.5962,-0.5954,-0.5956,-0.5931,-0.595,-0.594,-0.5976,-0.5995,-0.5996,-0.6003,-0.598,-0.6065,-0.6074,-0.6082,-0.611,-0.6121,-0.5987,-0.5987,-0.5987,-0.5986,0,-0.6063,-0.6077,-0.6101,-0.6094,-0.6097,-0.6121,-0.6091,-0.6099,-0.6076,-0.6059,-0.6085,-0.6072,-0.6076,-0.6082,-0.606,-0.6115,-0.6102,-0.6072,-0.6029,-0.6099,-0.6124,-0.6135,-0.5993,-0.5992,-0.5991,-0.599,0,0,-0.6186,-0.6159,-0.6169,-0.6166,-0.615,-0.616,-0.6183,-0.6185,-0.6193,-0.6189,-0.6208,-0.6222,-0.6195,-0.6194,-0.6171,-0.6192,-0.6257,-0.6159,-0.6159,-0.6179,-0.6318,-0.6342,-0.6355,-0.6237,-0.6239,-0.624,-0.6319,0,-0.6262,-0.6299,-0.6268,-0.6311,-0.6324,-0.6279,-0.6299,-0.6292,-0.6277,-0.6287,-0.627,-0.6281,-0.6243,-0.6243,-0.6261,-0.6245,-0.6284,-0.6239,-0.6256,-0.6257,-0.6261,-0.6368,-0.6393,-0.6468,-0.6329,-0.6331,-0.6332,0,-0.6357,-0.6357,-0.6401,-0.6383,-0.6387,-0.6406,-0.6406,-0.6415,-0.6407,-0.6395,-0.6395,-0.6366,-0.6388,-0.6345,-0.6375,-0.6345,-0.635,-0.6343,-0.6345,-0.6347,-0.63,-0.6374,-0.6491,-0.6504,-0.6347,-0.6346,-0.6345,0,-0.6444,-0.6455,-0.6483,-0.6481,-0.6461,-0.6475,-0.6467,-0.6457,-0.6461,-0.6461,-0.6464,-0.6467,-0.6469,-0.6473,-0.6446,-0.6417,-0.6481,-0.6435,-0.6473,-0.6473,-0.6489,-0.6489,-0.6611,-0.649,-0.649,-0.6489,-0.6489,0,-0.6534,-0.6563,-0.6522,-0.6539,-0.6571,-0.6536,-0.6568,-0.6556,-0.6547,-0.6562,-0.6523,-0.6538,-0.6501,-0.6513,-0.6492,-0.6521,-0.6522,-0.6514,-0.6508,-0.6518,-0.652,-0.6522,-0.6517,-0.6492,-0.6492,-0.6491,-0.6491,0,-0.6638,-0.6611,-0.6639,-0.6617,-0.6612,-0.6637,-0.6618,-0.6634,-0.6616,-0.6636,-0.6638,-0.6611,-0.6622,-0.6596,-0.6604,-0.659,-0.6632,-0.6617,-0.6635,-0.6631,-0.6671,-0.6668,-0.68,-0.6816,-0.6683,-0.6685,-0.6686,0,-0.6698,-0.6719,-0.6699,-0.6706,-0.6701,-0.6712,-0.6716,-0.6682,-0.6688,-0.6681,-0.6698,-0.6706,-0.6711,-0.6731,-0.6713,-0.6719,-0.6705,-0.6751,-0.6706,-0.6716,-0.6708,-0.6708,-0.671,-0.6761,-0.6762,-0.6764,-0.6765,0,-0.6807,-0.6793,-0.68,-0.6802,-0.6808,-0.6808,-0.6805,-0.6814,-0.6778,-0.6786,-0.6797,-0.6801,-0.6809,-0.6818,-0.682,-0.6813,-0.6784,-0.6779,-0.6788,-0.6799,-0.6809,-0.6806,-0.6662,-0.6776,-0.6775,-0.6774,-0.6774,-0.6773,-0.6892,-0.6909,-0.6898,-0.6907,-0.6902,-0.6901,-0.6915,-0.6899,-0.6907,-0.6911,-0.689,-0.6906,-0.6898,-0.6897,-0.6893,-0.6906,-0.6886,-0.6899,-0.6902,-0.6906,-0.6914,-0.6806,-0.6906,-0.6906,-0.6905,-0.6905,-0.6905,0,-0.7001,-0.6992,-0.7,-0.6998,-0.7006,-0.6976,-0.6972,-0.698,-0.6995,-0.6989,-0.6995,-0.7008,-0.7017,-0.6999,-0.7005,-0.7019,-0.7006,-0.7022,-0.7022,-0.7021,-0.6931,-0.6923,-0.7033,-0.7033,-0.7033,-0.7033,-0.7033,-0.7033,-0.7059,-0.7087,-0.7072,-0.7097,-0.7087,-0.7102,-0.7103,-0.7102,-0.7098,-0.7114,-0.7121,-0.7109,-0.7099,-0.7104,-0.7112,-0.7106,-0.7111,-0.7132,-0.7123,-0.7039,-0.7027,-0.7015,-0.7008,-0.7133,-0.7133,-0.7212,-0.7212,-0.7213]},{"header":{"parameterUnit":"m.s-1","parameterCategory":1,"la1":30.2991,"la2":30.254,"lo1":-89.0895,"lo2":-89.0444,"dy":0.0017,"dx":0.0017,"nx":28,"ny":28,"refTime":"2024-02-19T03:00:00:Z","depth":0,"parameterNumber":3,"parameterNumberName":"V-component_of_WINDS"},"data":[0,0,0,0,0,0,0,0,0,0,0,0,0,0,0,0,0,0,0,0,0,0,0,0,0,0,0,0,0,0,0,0,0,0,0,0,0,0,0,0,0,0,0,0,0,0,0,0,0,0,0,0,0,0,0,0,0,0,-0.2885,-0.2886,0,-0.2974,-0.2975,-0.2976,-0.2992,-0.2992,-0.2991,-0.299,-0.3083,-0.3086,-0.3089,0,0,0,0,0,0,0,0,0,0,0,0,0,-0.2729,-0.2732,-0.2884,-0.2886,-0.2887,-0.2974,-0.2975,-0.2976,-0.2993,-0.2992,-0.2991,-0.299,-0.3082,-0.3086,-0.309,0,0,0,0,0,0,0,0,0,0,0,0,0,-0.2805,-0.2733,-0.2884,-0.2905,-0.2908,-0.2973,-0.2975,-0.2977,-0.2993,-0.2992,-0.2991,-0.299,-0.3081,-0.3086,-0.309,-0.3141,0,0,-0.3105,-0.3107,0,0,0,0,0,0,0,0,-0.2801,-0.2811,-0.2901,-0.2904,-0.2907,-0.2971,-0.2954,-0.3032,-0.2993,-0.2961,-0.299,-0.2989,-0.3047,-0.3054,-0.3074,-0.3146,-0.315,-0.3105,-0.3108,-0.311,-0.3111,0,0,0,0,0,0,0,-0.2796,-0.2807,-0.292,-0.2902,-0.2906,-0.2911,-0.292,-0.2969,-0.3009,-0.2963,-0.2965,-0.2975,-0.3048,-0.3069,-0.3076,-0.3151,-0.3105,-0.3109,-0.3112,-0.3114,-0.327,-0.3272,0,0,0,0,0,0,-0.2786,-0.2803,-0.2917,-0.2923,-0.285,-0.2914,-0.2925,-0.2952,-0.3008,-0.3016,-0.2976,-0.2976,-0.3061,-0.307,-0.3079,-0.3144,-0.311,-0.3114,-0.3117,-0.3269,-0.3271,-0.3272,0,0,0,0,0,0,-0.2783,-0.2797,-0.2913,-0.2863,-0.2878,-0.2918,-0.2948,-0.2954,-0.2975,-0.3018,-0.3025,-0.299,-0.3061,-0.3072,-0.3126,-0.3147,-0.3116,-0.3121,-0.3268,-0.327,-0.3271,-0.3273,0,0,0,0,0,0,-0.2779,-0.2795,-0.2815,-0.2863,-0.2881,-0.2958,-0.2949,-0.2956,-0.2983,-0.2983,-0.3033,-0.304,-0.3061,-0.3119,-0.3131,-0.3153,-0.3124,-0.3266,-0.3268,-0.3271,-0.3271,-0.3275,-0.3278,0,0,0,0,0,-0.2773,-0.2812,-0.2816,-0.2829,-0.2906,-0.296,-0.297,-0.2993,-0.2984,-0.3005,-0.3032,-0.3038,-0.3142,-0.3124,-0.3137,-0.3162,-0.3265,-0.3268,-0.3271,-0.327,-0.3274,-0.3278,0,0,0,0,0,0,-0.2765,-0.2819,-0.2824,-0.2879,-0.2915,-0.2962,-0.2989,-0.2996,-0.3036,-0.3034,-0.3061,-0.3073,-0.3125,-0.3148,-0.3127,-0.3215,-0.3203,-0.3209,-0.3198,-0.3202,-0.3205,-0.32,-0.3128,0,0,0,0,0,-0.277,-0.2808,-0.2853,-0.2898,-0.2915,-0.2949,-0.2973,-0.2987,-0.3025,-0.3041,-0.3072,-0.3109,-0.3151,-0.3177,-0.3218,-0.3274,-0.3286,-0.3297,-0.3301,-0.3303,-0.3309,-0.3341,-0.3347,-0.3282,-0.3282,-0.3282,0,0,-0.278,-0.2814,-0.2837,-0.2897,-0.2926,-0.2966,-0.2961,-0.3004,-0.3034,-0.3047,-0.31,-0.3124,-0.3167,-0.3223,-0.3249,-0.3244,-0.3329,-0.3307,-0.3308,-0.3313,-0.3345,-0.3351,-0.3357,-0.3284,-0.3284,-0.3283,0,0,-0.282,-0.2849,-0.289,-0.2919,-0.2963,-0.2985,-0.2995,-0.3041,-0.3058,-0.3111,-0.3122,-0.3158,-0.3228,-0.3259,-0.3284,-0.3334,-0.3342,-0.3346,-0.3365,-0.3396,-0.3401,-0.3406,-0.3426,-0.3432,-0.3351,-0.3351,-0.3351,0,-0.2828,-0.2888,-0.291,-0.2952,-0.2979,-0.2992,-0.3034,-0.3061,-0.3117,-0.3135,-0.3128,-0.3217,-0.3247,-0.331,-0.3323,-0.3341,-0.3354,-0.3342,-0.3399,-0.3404,-0.3408,-0.3428,-0.3435,-0.3352,-0.3351,-0.3351,-0.3351,0,-0.2896,-0.2937,-0.2965,-0.3018,-0.3047,-0.3089,-0.3118,-0.3145,-0.3157,-0.318,-0.3234,-0.327,-0.3318,-0.3334,-0.3345,-0.3399,-0.3395,-0.3393,-0.3382,-0.3415,-0.3433,-0.3441,-0.3352,-0.3352,-0.3352,-0.3352,0,0,-0.2935,-0.2999,-0.3009,-0.3034,-0.3083,-0.3116,-0.3158,-0.3205,-0.3228,-0.3265,-0.3302,-0.3361,-0.336,-0.3388,-0.3403,-0.343,-0.347,-0.3425,-0.3427,-0.3434,-0.3533,-0.3536,-0.3544,-0.3474,-0.3475,-0.3477,-0.353,0,-0.2982,-0.3059,-0.308,-0.3144,-0.3184,-0.3196,-0.3233,-0.3268,-0.329,-0.3327,-0.3351,-0.3393,-0.3387,-0.3404,-0.3432,-0.3459,-0.3491,-0.3455,-0.3511,-0.3512,-0.3502,-0.3553,-0.3556,-0.3605,-0.3537,-0.3538,-0.3539,0,-0.3048,-0.3086,-0.3155,-0.32,-0.3217,-0.325,-0.3295,-0.333,-0.3369,-0.3383,-0.3414,-0.3426,-0.3472,-0.3457,-0.352,-0.3496,-0.3519,-0.3536,-0.3538,-0.3547,-0.3529,-0.3565,-0.3621,-0.3629,-0.3551,-0.355,-0.3549,0,-0.3072,-0.3141,-0.3191,-0.3211,-0.3264,-0.3287,-0.3311,-0.3349,-0.3376,-0.3414,-0.3432,-0.3476,-0.35,-0.3534,-0.3558,-0.3545,-0.362,-0.3607,-0.3635,-0.3634,-0.3652,-0.3651,-0.3715,-0.3663,-0.3663,-0.3663,-0.3663,0,-0.3124,-0.3166,-0.3203,-0.3234,-0.3282,-0.3305,-0.3352,-0.3375,-0.3409,-0.3446,-0.3458,-0.3492,-0.3521,-0.3559,-0.3578,-0.3629,-0.3639,-0.3652,-0.3658,-0.3653,-0.3651,-0.367,-0.3669,-0.3665,-0.3664,-0.3664,-0.3664,0,-0.316,-0.3186,-0.3243,-0.3288,-0.33,-0.3333,-0.3372,-0.3403,-0.3425,-0.3471,-0.3483,-0.3518,-0.3563,-0.359,-0.3647,-0.366,-0.3716,-0.3719,-0.3703,-0.3706,-0.3733,-0.3731,-0.3814,-0.3826,-0.3764,-0.3764,-0.3765,0,-0.3193,-0.3226,-0.3274,-0.3299,-0.3323,-0.3363,-0.3391,-0.3414,-0.3442,-0.349,-0.3515,-0.3561,-0.36,-0.3671,-0.3702,-0.3746,-0.3751,-0.3777,-0.3758,-0.3752,-0.3754,-0.3753,-0.3757,-0.3781,-0.3781,-0.3782,-0.3782,0,-0.3249,-0.326,-0.3299,-0.3343,-0.3375,-0.341,-0.3446,-0.3466,-0.3495,-0.3526,-0.3573,-0.3602,-0.3661,-0.3707,-0.3753,-0.3777,-0.3786,-0.3787,-0.3797,-0.3794,-0.3784,-0.3792,-0.3715,-0.3786,-0.3786,-0.3785,-0.3785,-0.3785,-0.3286,-0.3316,-0.3355,-0.3398,-0.3427,-0.346,-0.3491,-0.3517,-0.3556,-0.3605,-0.3616,-0.3666,-0.3704,-0.3767,-0.3793,-0.3832,-0.3828,-0.384,-0.3844,-0.3848,-0.385,-0.3776,-0.384,-0.384,-0.384,-0.384,-0.384,0,-0.3344,-0.337,-0.3409,-0.3458,-0.3492,-0.3495,-0.3534,-0.3563,-0.3606,-0.3641,-0.3678,-0.3732,-0.3776,-0.381,-0.3856,-0.3881,-0.3886,-0.3892,-0.3892,-0.3898,-0.385,-0.3838,-0.3887,-0.3887,-0.3887,-0.3887,-0.3887,-0.3887,-0.3379,-0.343,-0.3446,-0.3512,-0.3537,-0.3586,-0.3608,-0.3638,-0.3667,-0.3726,-0.3763,-0.3784,-0.3819,-0.3867,-0.3908,-0.3917,-0.3934,-0.3941,-0.395,-0.3906,-0.3901,-0.3896,-0.3885,-0.3944,-0.3944,-0.3996,-0.3996,-0.3996]}]]